SL-8 DEB, 1591

Orbit data source: Space-Track

SL-8 DEB, 1591 is space debris in LEO originally from a launch on Sat, 18 Sep 1965 UTC launched from the Tyuratam Missile And Space Complex (TTMTR). Debris objects in space refer to the collection of defunct objects orbiting the Earth. Examples of debris include non-operational satellites, rocket bodies, and fragments generated from explosions, collisions, or faulty payload assembly.

Loading next visibility...
Identifier
1591, 1965-073H
Orbit
LEO
Country
Flag of CISCIS
Related business
Manufacturer
Unknown
Mission
Spacecraft
Bus & Motor
Unknown
Mass
Unknown
Launch date (UTC)
1965-09-18 (61 years ago)
Launch vehicle
Unknown
Launch site
Tyuratam Missile And Space Complex (TTMTR)
Object type
Payload
Rocket body
Debris
Shape & HBR
Unknown shape, 0.1 m
Radar Cross Section
Medium (>0.1 m² and <1 m²)

Expand to show TLE details & history
Last TLE update: 16 hours ago

TLE from 16 hours ago
0 SL-8 DEB
1  1591U 65073H   26197.69799413  .00000068  00000-0  11142-2 0  9995
2  1591  56.0564  70.1772 0155790   8.3485  28.7294 12.43069724752399
Epoch: 2026-07-16T16:45Z
TLE epoch observation values (Epoch: 2026-07-16T16:45:06.692Z)
Latitude
30.75728°
Longitude
-92.14792°
Altitude
1,388.609 km
Speed
7.217 km/s
True Right ascension
06h 14m 39s
True Declination
30° 37' 07"
Sunlit
Object was in daylight at epoch
Visualization orbit readout
Latitude
Unknown
Longitude
Unknown
Altitude
Unknown
Speed
Unknown
Apparent Right ascension
Unknown
Apparent Declination
Unknown
Sunlit
N/A
Visualization observer readout
Local Sidereal Time
21:00:54
Azimuth
Unknown
Elevation
Unknown
Doppler factor
Unknown
Orbital elements
Apogee altitude
1,616.072 km
Perigee altitude
1,370.81 km
Semi-major axis
7,871.578 km
Eccentricity
0.01558
Inclination
56.0564°
RAAN
70.1772°
Arg. of periapsis
8.3485°
True anomaly
29.60237°
Mean anomaly
28.7294°
Eccentric anomaly
29.16438°
Mean motion
3.10778 °/min
Orbital period
115.84 mins
BSTAR
0.0011142
Loading maneuver chart data...
Computing Atmospheric mass density...
Loading historical data...
Loading historical data...
Loading historical data...
Loading historical data...
Loading historical data...
Loading historical data...
Loading historical data...

Documentation

Showing up to 5 results
|